Time,TemperatureF,DewpointF,PressureIn,WindDirection,WindDirectionDegrees,WindSpeedMPH,WindSpeedGustMPH,Humidity,HourlyPrecipIn,Conditions,Clouds,dailyrainin,SoftwareType,DateUTC
2013-02-23 00:00:00,39.7,29.3,30.07,NNW,338,3.0,8.0,66,0.00,,---,0.00,VWS V14.01,2013-02-23 06:00:00,
2013-02-23 00:30:00,38.9,29.2,30.07,NNW,338,3.0,9.0,68,0.00,,---,0.00,VWS V14.01,2013-02-23 06:30:00,
2013-02-23 01:00:00,38.3,28.7,30.07,NNW,338,3.0,8.0,68,0.00,,---,0.00,VWS V14.01,2013-02-23 07:00:00,
2013-02-23 01:30:00,37.4,28.2,30.07,NNW,338,3.0,8.0,69,0.00,,---,0.00,VWS V14.01,2013-02-23 07:30:00,
2013-02-23 02:00:00,36.9,27.7,30.05,NNW,338,3.0,8.0,69,0.00,,---,0.00,VWS V14.01,2013-02-23 08:00:00,
2013-02-23 02:30:00,36.6,27.8,30.03,NNW,338,2.0,8.0,70,0.00,,---,0.00,VWS V14.01,2013-02-23 08:30:00,
2013-02-23 03:00:00,36.3,27.5,30.03,NNW,338,2.0,7.0,70,0.00,,---,0.00,VWS V14.01,2013-02-23 09:00:00,
2013-02-23 03:30:00,35.4,27.3,30.02,NNW,338,3.0,10.0,72,0.00,,---,0.00,VWS V14.01,2013-02-23 09:30:00,
2013-02-23 04:00:00,35.0,27.2,30.01,NNW,338,2.0,9.0,73,0.00,,---,0.00,VWS V14.01,2013-02-23 10:00:00,
2013-02-23 04:30:00,34.8,27.0,30.01,NNW,338,3.0,7.0,73,0.00,,---,0.00,VWS V14.01,2013-02-23 10:30:00,
2013-02-23 05:00:00,34.3,26.9,30.02,NNW,338,2.0,7.0,74,0.00,,---,0.00,VWS V14.01,2013-02-23 11:00:00,
2013-02-23 05:30:00,33.9,26.8,30.01,NNW,338,2.0,7.0,75,0.00,,---,0.00,VWS V14.01,2013-02-23 11:30:00,
2013-02-23 06:00:00,33.3,26.2,30.01,NNW,338,2.0,6.0,75,0.00,,---,0.00,VWS V14.01,2013-02-23 12:00:00,
2013-02-23 06:30:00,32.8,26.4,30.02,NNW,338,2.0,5.0,77,0.00,,---,0.00,VWS V14.01,2013-02-23 12:30:00,
2013-02-23 07:00:00,32.5,26.1,30.03,NNW,338,2.0,4.0,77,0.00,,---,0.00,VWS V14.01,2013-02-23 13:00:00,
2013-02-23 07:30:00,32.9,26.5,30.04,NNW,338,1.0,4.0,77,0.00,,---,0.00,VWS V14.01,2013-02-23 13:30:00,
2013-02-23 08:00:00,35.8,28.7,30.07,NNE,22,1.0,6.0,75,0.00,,---,0.00,VWS V14.01,2013-02-23 14:00:00,
2013-02-23 08:30:00,36.8,28.3,30.06,NE,45,2.0,6.0,71,0.00,,---,0.00,VWS V14.01,2013-02-23 14:30:00,
2013-02-23 09:00:00,37.2,28.7,30.06,NNW,338,2.0,6.0,71,0.00,,---,0.00,VWS V14.01,2013-02-23 15:00:00,
2013-02-23 09:30:00,40.1,30.0,30.04,NNW,338,2.0,6.0,67,0.00,,---,0.00,VWS V14.01,2013-02-23 15:30:00,
2013-02-23 10:00:00,42.9,32.0,30.05,NW,315,2.0,6.0,65,0.00,,---,0.00,VWS V14.01,2013-02-23 16:00:00,
2013-02-23 10:30:00,45.8,32.7,30.05,NW,315,1.0,4.0,60,0.00,,---,0.00,VWS V14.01,2013-02-23 16:30:00,
2013-02-23 11:00:00,47.7,33.7,30.05,NE,45,1.0,5.0,58,0.00,,---,0.00,VWS V14.01,2013-02-23 17:00:00,
2013-02-23 11:30:00,49.6,35.0,30.03,ENE,68,2.0,6.0,57,0.00,,---,0.00,VWS V14.01,2013-02-23 17:30:00,
2013-02-23 12:00:00,50.9,33.9,30.03,NE,45,2.0,6.0,52,0.00,,---,0.00,VWS V14.01,2013-02-23 18:00:00,
2013-02-23 12:30:00,51.4,34.9,30.02,NW,315,3.0,11.0,53,0.00,,---,0.00,VWS V14.01,2013-02-23 18:30:00,
2013-02-23 13:00:00,50.7,34.2,30.01,NW,315,5.0,10.0,53,0.00,,---,0.00,VWS V14.01,2013-02-23 19:00:00,
2013-02-23 13:30:00,51.8,33.3,30.00,NW,315,5.0,11.0,49,0.00,,---,0.00,VWS V14.01,2013-02-23 19:30:00,
2013-02-23 14:00:00,52.4,31.7,29.99,NW,315,4.0,10.0,45,0.00,,---,0.00,VWS V14.01,2013-02-23 20:00:00,
2013-02-23 14:30:00,53.4,30.9,29.97,NNW,338,4.0,10.0,42,0.00,,---,0.00,VWS V14.01,2013-02-23 20:30:00,
2013-02-23 15:00:00,53.9,30.8,29.96,NW,315,3.0,10.0,41,0.00,,---,0.00,VWS V14.01,2013-02-23 21:00:00,
2013-02-23 15:30:00,57.1,33.0,29.94,ENE,68,2.0,7.0,40,0.00,,---,0.00,VWS V14.01,2013-02-23 21:30:00,
2013-02-23 16:00:00,56.1,31.5,29.94,SE,135,1.0,3.0,39,0.00,,---,0.00,VWS V14.01,2013-02-23 22:00:00,
2013-02-23 16:30:00,57.8,33.0,29.93,WNW,292,0.0,2.0,39,0.00,,---,0.00,VWS V14.01,2013-02-23 22:30:00,
2013-02-23 17:00:00,58.1,33.9,29.93,ESE,112,1.0,4.0,40,0.00,,---,0.00,VWS V14.01,2013-02-23 23:00:00,
2013-02-23 17:30:00,55.1,31.8,29.94,SW,225,3.0,6.0,41,0.00,,---,0.00,VWS V14.01,2013-02-23 23:30:00,
2013-02-23 18:00:00,53.6,32.8,29.94,SW,225,1.0,5.0,45,0.00,,---,0.00,VWS V14.01,2013-02-24 00:00:00,
2013-02-23 18:30:00,50.4,33.9,29.94,NW,315,0.0,2.0,53,0.00,,---,0.00,VWS V14.01,2013-02-24 00:30:00,
2013-02-23 19:00:00,49.0,30.7,29.94,NW,315,0.0,1.0,49,0.00,,---,0.00,VWS V14.01,2013-02-24 01:00:00,
2013-02-23 19:30:00,46.8,30.6,29.95,NW,315,0.0,1.0,53,0.00,,---,0.00,VWS V14.01,2013-02-24 01:30:00,
2013-02-23 20:00:00,44.3,33.3,29.96,SW,225,0.0,2.0,65,0.00,,---,0.00,VWS V14.01,2013-02-24 02:00:00,
2013-02-23 20:30:00,45.5,32.8,29.97,NW,315,1.0,5.0,61,0.00,,---,0.00,VWS V14.01,2013-02-24 02:30:00,
2013-02-23 21:00:00,43.3,32.0,29.97,WNW,292,1.0,2.0,64,0.00,,---,0.00,VWS V14.01,2013-02-24 03:00:00,
2013-02-23 21:30:00,43.5,31.8,29.98,NW,315,1.0,2.0,63,0.00,,---,0.00,VWS V14.01,2013-02-24 03:30:00,
2013-02-23 22:00:00,41.7,33.0,29.98,North,0,0.0,1.0,71,0.00,,---,0.00,VWS V14.01,2013-02-24 04:00:00,
2013-02-23 22:30:00,40.5,32.5,29.97,NNW,338,0.0,1.0,73,0.00,,---,0.00,VWS V14.01,2013-02-24 04:30:00,
2013-02-23 23:00:00,42.9,35.9,29.95,NNE,22,1.0,3.0,76,0.00,,---,0.00,VWS V14.01,2013-02-24 05:00:00,
2013-02-23 23:30:00,42.5,34.5,29.94,NE,45,1.0,4.0,73,0.00,,---,0.00,VWS V14.01,2013-02-24 05:30:00,